[[{"header":{"parameterUnit":"m.s-1","parameterCategory":1,"la1":30.2991,"la2":30.254,"lo1":-89.0895,"lo2":-89.0444,"dy":0.0017,"dx":0.0017,"nx":28,"ny":28,"refTime":"2026-02-08T09:00:00:Z","depth":0,"parameterNumber":2,"parameterNumberName":"U-component_of_WINDS"},"data":[0,0,0,0,0,0,0,0,0,0,0,0,0,0,0,0,0,0,0,0,0,0,0,0,0,0,0,0,0,0,0,0,0,0,0,0,0,0,0,0,0,0,0,0,0,0,0,0,0,0,0,0,0,0,0,0,0,0,-2.0961,-2.0962,0,-2.102,-2.102,-2.1021,-2.0945,-2.0942,-2.0939,-2.0937,-2.0999,-2.1003,-2.1007,0,0,0,0,0,0,0,0,0,0,0,0,0,-2.0786,-2.079,-2.0961,-2.0962,-2.0963,-2.102,-2.102,-2.1021,-2.0945,-2.0942,-2.0938,-2.0935,-2.0997,-2.1002,-2.1007,0,0,0,0,0,0,0,0,0,0,0,0,0,-2.0855,-2.0791,-2.0961,-2.0932,-2.093,-2.1019,-2.102,-2.1021,-2.0946,-2.0942,-2.0938,-2.0934,-2.0996,-2.1002,-2.1008,-2.113,0,0,-2.1028,-2.103,0,0,0,0,0,0,0,0,-2.0852,-2.0862,-2.0935,-2.0934,-2.0932,-2.0971,-2.0981,-2.1058,-2.0947,-2.094,-2.0936,-2.0932,-2.0993,-2.0999,-2.1019,-2.1133,-2.1136,-2.1028,-2.1032,-2.1035,-2.1036,0,0,0,0,0,0,0,-2.0847,-2.0859,-2.0984,-2.0937,-2.0934,-2.0916,-2.0921,-2.0996,-2.0989,-2.094,-2.0935,-2.0942,-2.0991,-2.1013,-2.102,-2.1137,-2.1028,-2.1034,-2.1037,-2.104,-2.1354,-2.1359,0,0,0,0,0,0,-2.0845,-2.0855,-2.0983,-2.0986,-2.088,-2.0923,-2.0928,-2.0962,-2.0988,-2.0988,-2.0946,-2.0939,-2.1005,-2.1013,-2.1022,-2.1168,-2.1035,-2.1041,-2.1044,-2.135,-2.1355,-2.136,0,0,0,0,0,0,-2.0842,-2.0857,-2.098,-2.0919,-2.0934,-2.093,-2.0969,-2.0966,-2.0988,-2.0992,-2.0991,-2.097,-2.1002,-2.1013,-2.1104,-2.1169,-2.1043,-2.1049,-2.1345,-2.1352,-2.1358,-2.1459,0,0,0,0,0,0,-2.0837,-2.0857,-2.0903,-2.0921,-2.0937,-2.1061,-2.0973,-2.097,-2.0999,-2.099,-2.1014,-2.1015,-2.0999,-2.1095,-2.111,-2.1175,-2.1054,-2.1339,-2.1348,-2.1356,-2.145,-2.1469,-2.1485,0,0,0,0,0,-2.0831,-2.0929,-2.0905,-2.0921,-2.0995,-2.1065,-2.1074,-2.1054,-2.1004,-2.1051,-2.1054,-2.1014,-2.1159,-2.1105,-2.1122,-2.1189,-2.1335,-2.1345,-2.1355,-2.1442,-2.1465,-2.1484,0,0,0,0,0,0,-2.092,-2.0931,-2.0905,-2.1012,-2.1038,-2.1052,-2.111,-2.1078,-2.112,-2.111,-2.1083,-2.109,-2.1187,-2.1197,-2.1137,-2.1309,-2.1239,-2.1253,-2.1299,-2.1321,-2.1338,-2.1334,-2.1059,0,0,0,0,0,-2.0952,-2.1007,-2.1014,-2.1108,-2.1122,-2.1114,-2.1144,-2.1126,-2.1152,-2.1163,-2.1172,-2.12,-2.1252,-2.1286,-2.1334,-2.1451,-2.1455,-2.1505,-2.1523,-2.1537,-2.155,-2.1612,-2.1635,-2.1394,-2.1394,-2.1394,0,0,-2.1018,-2.1031,-2.1068,-2.1126,-2.1144,-2.1203,-2.1124,-2.1189,-2.1233,-2.1173,-2.1259,-2.1267,-2.1296,-2.1401,-2.1447,-2.1412,-2.1617,-2.155,-2.1561,-2.1566,-2.1625,-2.1648,-2.1668,-2.1401,-2.14,-2.1399,0,0,-2.117,-2.1185,-2.1265,-2.1284,-2.1312,-2.1306,-2.1325,-2.1344,-2.1347,-2.1433,-2.1389,-2.1441,-2.153,-2.1553,-2.1576,-2.1736,-2.1701,-2.1752,-2.1843,-2.1904,-2.1923,-2.194,-2.1998,-2.2019,-2.1764,-2.1765,-2.1765,0,-2.125,-2.1336,-2.131,-2.1379,-2.1406,-2.1353,-2.1434,-2.1455,-2.1497,-2.1518,-2.1477,-2.1588,-2.1604,-2.1713,-2.1752,-2.1772,-2.1794,-2.175,-2.1922,-2.1939,-2.1954,-2.2009,-2.2031,-2.1771,-2.177,-2.177,-2.1769,0,-2.1433,-2.1493,-2.1554,-2.1596,-2.163,-2.1704,-2.1691,-2.1728,-2.1707,-2.1705,-2.1793,-2.181,-2.1861,-2.1885,-2.1865,-2.1992,-2.1969,-2.1926,-2.1855,-2.1983,-2.2035,-2.2055,-2.178,-2.1777,-2.1776,-2.1774,0,0,-2.1644,-2.1669,-2.1692,-2.1711,-2.1737,-2.1784,-2.1856,-2.1904,-2.1937,-2.1968,-2.2029,-2.2105,-2.2065,-2.2092,-2.2074,-2.2128,-2.2254,-2.2078,-2.2078,-2.2111,-2.2395,-2.2428,-2.2453,-2.223,-2.2234,-2.2237,-2.2393,0,-2.1796,-2.192,-2.1899,-2.202,-2.2076,-2.2026,-2.2089,-2.2112,-2.2113,-2.216,-2.216,-2.2216,-2.2158,-2.2174,-2.2225,-2.2228,-2.2311,-2.2216,-2.2288,-2.229,-2.2283,-2.248,-2.2515,-2.2661,-2.2413,-2.2416,-2.2419,0,-2.1991,-2.2028,-2.2154,-2.2172,-2.2194,-2.2251,-2.2294,-2.234,-2.2366,-2.2362,-2.2391,-2.2363,-2.2436,-2.2363,-2.2463,-2.2399,-2.2427,-2.2433,-2.2438,-2.2445,-2.2363,-2.2493,-2.2708,-2.273,-2.245,-2.2447,-2.2445,0,-2.2133,-2.2215,-2.2301,-2.2318,-2.234,-2.2382,-2.2393,-2.2414,-2.2445,-2.2482,-2.2502,-2.2548,-2.2573,-2.2609,-2.2595,-2.2543,-2.2698,-2.2624,-2.2698,-2.2699,-2.2735,-2.2733,-2.2958,-2.2751,-2.275,-2.275,-2.2749,0,-2.2306,-2.2386,-2.2365,-2.2418,-2.2506,-2.2481,-2.2569,-2.2574,-2.2593,-2.2647,-2.2607,-2.2659,-2.2636,-2.2686,-2.2675,-2.276,-2.2772,-2.2771,-2.2768,-2.2776,-2.2776,-2.2795,-2.2785,-2.2756,-2.2754,-2.2753,-2.2752,0,-2.2481,-2.247,-2.2561,-2.2574,-2.2579,-2.2644,-2.2655,-2.2705,-2.2702,-2.2771,-2.2785,-2.278,-2.2837,-2.2826,-2.2889,-2.2881,-2.2989,-2.2972,-2.298,-2.2976,-2.3052,-2.3046,-2.3298,-2.333,-2.3101,-2.3103,-2.3105,0,-2.2593,-2.2653,-2.2672,-2.2705,-2.2719,-2.2773,-2.2803,-2.2781,-2.2814,-2.2848,-2.2894,-2.2947,-2.2989,-2.3082,-2.3085,-2.3133,-2.3118,-2.3203,-2.3125,-2.3131,-2.312,-2.3118,-2.3124,-2.3219,-2.3221,-2.3223,-2.3225,0,-2.2793,-2.2785,-2.283,-2.2873,-2.2911,-2.2944,-2.2974,-2.3003,-2.2983,-2.3023,-2.308,-2.3112,-2.3176,-2.323,-2.3274,-2.3286,-2.3254,-2.3249,-2.3269,-2.3279,-2.3282,-2.3282,-2.3024,-2.3244,-2.3242,-2.3241,-2.324,-2.3239,-2.2941,-2.2992,-2.3013,-2.3065,-2.3085,-2.3113,-2.3161,-2.3163,-2.321,-2.326,-2.3243,-2.3309,-2.3333,-2.3389,-2.3407,-2.3458,-2.3426,-2.3455,-2.3463,-2.3471,-2.348,-2.3272,-2.3466,-2.3465,-2.3465,-2.3464,-2.3464,0,-2.314,-2.3151,-2.3199,-2.3241,-2.3282,-2.3245,-2.3276,-2.3313,-2.3371,-2.3396,-2.3437,-2.3503,-2.3555,-2.3561,-2.361,-2.365,-2.3636,-2.3664,-2.3661,-2.3665,-2.3505,-2.3484,-2.3674,-2.3674,-2.3674,-2.3674,-2.3674,-2.3674,-2.3248,-2.3333,-2.3327,-2.3421,-2.3431,-2.3495,-2.3516,-2.3542,-2.3561,-2.3637,-2.3679,-2.3682,-2.37,-2.375,-2.3796,-2.3796,-2.3817,-2.3851,-2.3846,-2.3697,-2.3676,-2.3656,-2.3636,-2.3855,-2.3855,-2.4001,-2.4002,-2.4003]},{"header":{"parameterUnit":"m.s-1","parameterCategory":1,"la1":30.2991,"la2":30.254,"lo1":-89.0895,"lo2":-89.0444,"dy":0.0017,"dx":0.0017,"nx":28,"ny":28,"refTime":"2026-02-08T09:00:00:Z","depth":0,"parameterNumber":3,"parameterNumberName":"V-component_of_WINDS"},"data":[0,0,0,0,0,0,0,0,0,0,0,0,0,0,0,0,0,0,0,0,0,0,0,0,0,0,0,0,0,0,0,0,0,0,0,0,0,0,0,0,0,0,0,0,0,0,0,0,0,0,0,0,0,0,0,0,0,0,-2.1437,-2.1437,0,-2.1463,-2.1463,-2.1463,-2.1423,-2.1421,-2.142,-2.1419,-2.1443,-2.1445,-2.1447,0,0,0,0,0,0,0,0,0,0,0,0,0,-2.1349,-2.1351,-2.1437,-2.1437,-2.1437,-2.1463,-2.1463,-2.1463,-2.1423,-2.1421,-2.1419,-2.1418,-2.1442,-2.1445,-2.1447,0,0,0,0,0,0,0,0,0,0,0,0,0,-2.1382,-2.1352,-2.1437,-2.142,-2.1419,-2.1463,-2.1463,-2.1463,-2.1423,-2.1421,-2.1419,-2.1417,-2.1442,-2.1445,-2.1447,-2.1508,0,0,-2.1456,-2.1458,0,0,0,0,0,0,0,0,-2.1381,-2.1386,-2.1422,-2.1421,-2.142,-2.1437,-2.1441,-2.1478,-2.1424,-2.1422,-2.1418,-2.1416,-2.1443,-2.1445,-2.1455,-2.1509,-2.151,-2.1457,-2.1458,-2.146,-2.1461,0,0,0,0,0,0,0,-2.1378,-2.1384,-2.1447,-2.1423,-2.1422,-2.1411,-2.1413,-2.1448,-2.1444,-2.1422,-2.1419,-2.1422,-2.1442,-2.1452,-2.1455,-2.151,-2.1457,-2.1459,-2.1461,-2.1462,-2.1613,-2.1616,0,0,0,0,0,0,-2.1378,-2.1383,-2.1446,-2.1448,-2.1395,-2.1414,-2.1417,-2.1434,-2.1443,-2.1443,-2.1424,-2.142,-2.1448,-2.1452,-2.1456,-2.1526,-2.146,-2.1462,-2.1464,-2.1611,-2.1614,-2.1616,0,0,0,0,0,0,-2.1377,-2.1384,-2.1445,-2.1414,-2.1421,-2.1418,-2.1437,-2.1436,-2.1446,-2.1445,-2.1444,-2.1436,-2.1447,-2.1452,-2.1495,-2.1526,-2.1464,-2.1466,-2.1609,-2.1612,-2.1615,-2.1668,0,0,0,0,0,0,-2.1374,-2.1384,-2.1408,-2.1415,-2.1423,-2.1485,-2.1439,-2.1438,-2.1451,-2.1447,-2.1456,-2.1455,-2.1445,-2.1491,-2.1498,-2.1529,-2.1469,-2.1606,-2.161,-2.1614,-2.1663,-2.1673,-2.1681,0,0,0,0,0,-2.1371,-2.1421,-2.1409,-2.1417,-2.1453,-2.1487,-2.1491,-2.1479,-2.1454,-2.1477,-2.1476,-2.1455,-2.1522,-2.1496,-2.1503,-2.1536,-2.1604,-2.1609,-2.1614,-2.1659,-2.1671,-2.168,0,0,0,0,0,0,-2.1417,-2.1422,-2.1408,-2.1462,-2.1474,-2.148,-2.1508,-2.1492,-2.1511,-2.1506,-2.149,-2.1492,-2.1538,-2.1541,-2.1512,-2.1594,-2.1558,-2.1565,-2.1591,-2.1601,-2.161,-2.1608,-2.1471,0,0,0,0,0,-2.1433,-2.1461,-2.1464,-2.1511,-2.1518,-2.1512,-2.1527,-2.1517,-2.1528,-2.1533,-2.1535,-2.1547,-2.157,-2.1586,-2.1608,-2.1664,-2.1664,-2.169,-2.1699,-2.1706,-2.1712,-2.1741,-2.1752,-2.1633,-2.1633,-2.1633,0,0,-2.1467,-2.1473,-2.1492,-2.152,-2.1528,-2.1557,-2.1517,-2.1549,-2.1569,-2.1537,-2.1578,-2.1581,-2.1592,-2.1642,-2.1664,-2.1646,-2.1745,-2.1712,-2.1718,-2.172,-2.1747,-2.1758,-2.1768,-2.1637,-2.1636,-2.1635,0,0,-2.1543,-2.1551,-2.1591,-2.16,-2.1613,-2.1609,-2.1619,-2.1626,-2.1627,-2.1668,-2.1644,-2.1668,-2.1709,-2.1718,-2.1728,-2.1807,-2.1787,-2.1814,-2.186,-2.1888,-2.1897,-2.1906,-2.1933,-2.1943,-2.182,-2.1821,-2.1821,0,-2.1583,-2.1626,-2.1613,-2.1647,-2.166,-2.1633,-2.1672,-2.1681,-2.1701,-2.171,-2.1689,-2.174,-2.1746,-2.1797,-2.1816,-2.1825,-2.1835,-2.1813,-2.1897,-2.1905,-2.1913,-2.1939,-2.1949,-2.1824,-2.1823,-2.1823,-2.1823,0,-2.1675,-2.1704,-2.1735,-2.1755,-2.1771,-2.1807,-2.1799,-2.1817,-2.1806,-2.1803,-2.1845,-2.1851,-2.1873,-2.1884,-2.1873,-2.1934,-2.1922,-2.19,-2.1864,-2.1927,-2.1951,-2.1961,-2.1828,-2.1827,-2.1826,-2.1825,0,0,-2.178,-2.1792,-2.1804,-2.1812,-2.1824,-2.1846,-2.1881,-2.1903,-2.1918,-2.1932,-2.196,-2.1996,-2.1975,-2.1986,-2.1976,-2.2001,-2.2062,-2.1975,-2.1975,-2.1991,-2.2128,-2.2144,-2.2156,-2.2049,-2.2051,-2.2053,-2.2127,0,-2.1856,-2.1916,-2.1906,-2.1964,-2.1991,-2.1966,-2.1996,-2.2006,-2.2005,-2.2026,-2.2025,-2.205,-2.2021,-2.2027,-2.2051,-2.205,-2.2089,-2.2044,-2.2075,-2.2076,-2.2072,-2.2169,-2.2187,-2.2256,-2.2136,-2.2138,-2.2139,0,-2.1952,-2.197,-2.2031,-2.2039,-2.2049,-2.2077,-2.2096,-2.2118,-2.2128,-2.2125,-2.2138,-2.2122,-2.2156,-2.212,-2.2165,-2.2135,-2.2146,-2.2147,-2.215,-2.2152,-2.2111,-2.2173,-2.2278,-2.2289,-2.2154,-2.2153,-2.2152,0,-2.2022,-2.2061,-2.2103,-2.2111,-2.2121,-2.214,-2.2145,-2.2154,-2.2168,-2.2184,-2.2192,-2.2212,-2.2223,-2.2239,-2.2229,-2.2203,-2.2275,-2.2238,-2.2273,-2.2274,-2.2289,-2.2288,-2.2397,-2.2298,-2.2298,-2.2297,-2.2297,0,-2.2107,-2.2145,-2.2135,-2.216,-2.2202,-2.2189,-2.2231,-2.2232,-2.224,-2.2265,-2.2244,-2.2267,-2.2253,-2.2275,-2.2268,-2.2306,-2.2311,-2.2309,-2.2306,-2.2311,-2.2311,-2.2318,-2.2313,-2.23,-2.23,-2.2299,-2.2299,0,-2.2192,-2.2187,-2.223,-2.2236,-2.2238,-2.2269,-2.2273,-2.2297,-2.2294,-2.2325,-2.2332,-2.2327,-2.2352,-2.2343,-2.237,-2.2365,-2.2413,-2.2405,-2.241,-2.2408,-2.2443,-2.244,-2.256,-2.2575,-2.2466,-2.2467,-2.2468,0,-2.2247,-2.2276,-2.2284,-2.23,-2.2306,-2.2331,-2.2345,-2.2333,-2.2349,-2.2363,-2.2384,-2.2407,-2.2425,-2.2466,-2.2464,-2.2484,-2.2475,-2.2516,-2.2478,-2.2481,-2.2475,-2.2474,-2.2476,-2.2524,-2.2525,-2.2526,-2.2527,0,-2.2344,-2.2339,-2.2361,-2.2381,-2.2399,-2.2414,-2.2427,-2.2441,-2.2429,-2.2447,-2.2473,-2.2487,-2.2514,-2.2537,-2.2555,-2.2559,-2.2541,-2.2539,-2.2548,-2.2552,-2.2554,-2.2553,-2.243,-2.2536,-2.2535,-2.2534,-2.2534,-2.2533,-2.2415,-2.2439,-2.2449,-2.2473,-2.2482,-2.2495,-2.2517,-2.2517,-2.2538,-2.256,-2.2551,-2.258,-2.2589,-2.2611,-2.2618,-2.264,-2.2624,-2.2637,-2.264,-2.2644,-2.2648,-2.2551,-2.2643,-2.2643,-2.2643,-2.2642,-2.2642,0,-2.251,-2.2515,-2.2538,-2.2557,-2.2576,-2.2558,-2.2572,-2.2588,-2.2615,-2.2625,-2.2643,-2.2672,-2.2694,-2.2694,-2.2714,-2.2731,-2.2724,-2.2737,-2.2735,-2.2736,-2.2661,-2.2651,-2.2743,-2.2743,-2.2743,-2.2743,-2.2743,-2.2743,-2.2562,-2.2602,-2.2599,-2.2643,-2.2647,-2.2676,-2.2685,-2.2697,-2.2705,-2.2738,-2.2756,-2.2757,-2.2762,-2.2783,-2.2802,-2.2801,-2.2809,-2.2826,-2.2822,-2.2752,-2.2742,-2.2732,-2.2723,-2.2828,-2.2828,-2.2895,-2.2896,-2.2896]}]]